JAF1738 EBBR-EHAM

Flight info

Callsign JAF1738
Flight time N/A
Altitude 16000
Route HELEN
Aircraft B38M/M-SDE1FGHILORVWXY/HB1

Departure

Time 2026-05-07 19:25
Airport Brussels Airport (EBBR)

Arrival

Time N/A
Airport Amsterdam Airport Schiphol (EHAM)
Time Latitude Longitude Altitude Speed Heading
2026-05-07 18:47 50.90334 4.48313 139 ft 0 kts 155°
2026-05-07 19:11 50.90344 4.48306 139 ft 2 kts 155°
2026-05-07 19:11 50.90359 4.48295 139 ft 2 kts 155°
2026-05-07 19:11 50.90373 4.48284 140 ft 2 kts 155°
2026-05-07 19:12 50.90390 4.48272 140 ft 3 kts 150°
2026-05-07 19:12 50.90405 4.48248 141 ft 3 kts 100°
2026-05-07 19:12 50.90404 4.48234 141 ft 0 kts 64°
2026-05-07 19:13 50.90404 4.48235 141 ft 0 kts 64°
2026-05-07 19:13 50.90405 4.48238 141 ft 0 kts 64°
2026-05-07 19:15 50.90407 4.48244 141 ft 2 kts 65°
2026-05-07 19:15 50.90420 4.48287 140 ft 7 kts 65°
2026-05-07 19:15 50.90450 4.48392 138 ft 14 kts 65°
2026-05-07 19:16 50.90488 4.48523 136 ft 9 kts 66°
2026-05-07 19:16 50.90533 4.48590 136 ft 9 kts 17°
2026-05-07 19:16 50.90599 4.48642 133 ft 12 kts 54°
2026-05-07 19:16 50.90639 4.48769 127 ft 14 kts 65°
2026-05-07 19:17 50.90678 4.48910 131 ft 14 kts 66°
2026-05-07 19:17 50.90721 4.49064 126 ft 16 kts 65°
2026-05-07 19:17 50.90756 4.49184 132 ft 11 kts 65°
2026-05-07 19:17 50.90789 4.49299 132 ft 13 kts 65°
2026-05-07 19:18 50.90825 4.49424 129 ft 2 kts 65°
2026-05-07 19:18 50.90826 4.49424 129 ft 0 kts 65°
2026-05-07 19:19 50.90830 4.49441 128 ft 3 kts 65°
2026-05-07 19:19 50.90843 4.49484 126 ft 6 kts 65°
2026-05-07 19:19 50.90869 4.49575 126 ft 12 kts 65°
2026-05-07 19:19 50.90911 4.49719 123 ft 16 kts 65°
2026-05-07 19:20 50.90960 4.49833 124 ft 11 kts 43°
2026-05-07 19:20 50.91005 4.49886 122 ft 0 kts 28°
2026-05-07 19:23 50.91024 4.49901 124 ft 7 kts 27°
2026-05-07 19:23 50.91093 4.49940 120 ft 13 kts
2026-05-07 19:24 50.91137 4.49885 122 ft 6 kts 265°
2026-05-07 19:24 50.91105 4.49760 125 ft 33 kts 245°
2026-05-07 19:24 50.90899 4.49050 136 ft 106 kts 245°
2026-05-07 19:24 50.90521 4.47702 244 ft 154 kts 246°
2026-05-07 19:25 50.90086 4.46026 735 ft 173 kts 254°
2026-05-07 19:25 50.90066 4.44054 1291 ft 190 kts 284°
2026-05-07 19:25 50.90743 4.42225 1876 ft 192 kts 321°
2026-05-07 19:25 50.91738 4.40997 2587 ft 176 kts 320°
2026-05-07 19:26 50.92536 4.39547 3085 ft 173 kts 307°
2026-05-07 19:26 50.93218 4.37973 3529 ft 173 kts 304°
2026-05-07 19:26 50.93885 4.36407 3931 ft 174 kts 305°
2026-05-07 19:26 50.94585 4.34786 4432 ft 182 kts 305°
2026-05-07 19:27 50.95323 4.33080 4391 ft 192 kts 305°
2026-05-07 19:27 50.96106 4.31274 4516 ft 208 kts 305°
2026-05-07 19:27 50.96967 4.29303 5030 ft 224 kts 308°
2026-05-07 19:27 50.98063 4.27528 5784 ft 227 kts 315°
2026-05-07 19:28 50.99186 4.25730 6565 ft 230 kts 314°
2026-05-07 19:28 51.00329 4.23899 7011 ft 235 kts 314°
2026-05-07 19:28 51.01492 4.22062 7068 ft 235 kts 314°
2026-05-07 19:28 51.02648 4.20241 7068 ft 233 kts 314°
2026-05-07 19:29 51.03784 4.18444 7068 ft 233 kts 314°
2026-05-07 19:29 51.04935 4.16619 7106 ft 236 kts 314°
2026-05-07 19:29 51.06126 4.14730 7377 ft 250 kts 314°
2026-05-07 19:29 51.07406 4.12698 7842 ft 269 kts 314°
2026-05-07 19:30 51.08755 4.10557 8505 ft 278 kts 314°
2026-05-07 19:30 51.10134 4.08366 9276 ft 283 kts 314°
2026-05-07 19:30 51.11537 4.06135 10067 ft 287 kts 314°
2026-05-07 19:30 51.12971 4.03851 10621 ft 298 kts 314°
2026-05-07 19:31 51.14471 4.01459 11024 ft 313 kts 314°
2026-05-07 19:31 51.16040 3.98957 11542 ft 324 kts 314°
2026-05-07 19:31 51.17649 3.96390 12177 ft 330 kts 314°
2026-05-07 19:31 51.19284 3.93777 12855 ft 335 kts 313°
2026-05-07 19:32 51.20939 3.91128 13556 ft 339 kts 313°
2026-05-07 19:32 51.22621 3.88468 14018 ft 342 kts 317°
2026-05-07 19:32 51.24671 3.86657 14088 ft 345 kts 344°
2026-05-07 19:32 51.27053 3.86272 14088 ft 346 kts
2026-05-07 19:33 51.29460 3.86564 14085 ft 346 kts
2026-05-07 19:33 51.31861 3.86870 14087 ft 346 kts